Location: *
(34.1056°S, 61.9824°E)
Time: 23:17:08
(UTC+00:00)

Daily predictions for brighter satellites

Satellite Brightness Start Highest point End
(mag) Time Altitude Azimuth Time Altitude Azimuth Time Altitude Azimuth
COSMO-SKYMED 1 2.6 13:10:18 10° NNE 13:14:40 86° ESE 13:19:06 10° S
H-2A R/B 2.1 13:10:58 10° S 13:15:58 85° WSW 13:20:57 10° NNW
NOSS 0 Rocket 4.1 13:11:29 10° SSW 13:17:41 57° ESE 13:23:47 10° NE
CZ-2D R/B 4.1 13:15:01 10° SE 13:18:26 31° E 13:21:46 10° NNE
Meteor 1-4 Rocket 2.2 13:16:04 10° N 13:19:21 73° E 13:22:41 10° SSE
USA 267 3.4 13:17:10 10° NE 13:23:45 89° NW 13:30:23 10° SW
Cosmos 1140 Rocket 4.1 13:18:55 10° SSW 13:24:05 63° WNW 13:29:13 10° N
Cosmos 1842 Rocket 4.2 13:22:22 10° SSE 13:26:26 34° E 13:30:26 10° NE
Cosmos 1452 Rocket 4.2 13:24:39 10° NNE 13:29:21 34° E 13:34:06 10° SE
H-2A R/B 2.7 13:28:45 10° WNW 13:30:52 28° N 13:35:32 10° NE
Cosmos 1782 2.7 13:27:03 10° S 13:31:05 82° E 13:35:03 10° N
Meteor 1-31 Rocket 3.1 13:28:26 10° SSE 13:32:04 42° E 13:35:39 10° N
OAO 2 Rocket 3.8 13:27:22 10° NW 13:32:08 49° NNE 13:36:39 11° E
Cosmos 2315 Rocket 4.2 13:26:02 10° NNE 13:32:09 54° E 13:38:16 10° SSE
Cosmos 1862 3.3 13:30:02 10° N 13:33:55 63° E 13:37:53 10° SSE
CZ-2C R/B 3.5 13:33:02 10° S 13:36:37 52° WSW 13:40:11 10° NNW
SL-6 R/B(2) 4.4 13:21:41 10° NNW 13:38:10 73° ENE 13:43:19 10° SE
CZ-4B R/B 3.6 13:39:10 10° SSE 13:42:50 62° ENE 13:46:31 10° N
ATLAS 5 CENTAUR R/B 4.0 13:38:35 10° NNE 13:44:12 23° ENE 13:48:17 15° ESE
Lacrosse 4 Rocket 3.0 13:44:41 10° NNE 13:47:33 18° ENE 13:48:38 16° E
JB-3 4.5 13:45:23 10° NNE 13:49:12 50° ESE 13:53:09 10° S
SL-19 R/B 4.5 13:45:00 10° NNE 13:49:32 79° ESE 13:53:39 10° S
Cosmos 2237 Rocket 2.2 13:44:36 10° SSW 13:50:18 62° ESE 13:55:53 10° NNE
SMAP 3.2 13:46:50 10° SSE 13:51:27 52° E 13:55:59 10° N
Meteor 2-6 Rocket 4.5 13:46:59 10° S 13:52:29 45° ESE 13:57:45 10° NNE
ATLAS 3B R/B 4.0 13:52:16 10° S 13:55:52 15° SE 13:56:29 15° SE
Lacrosse 5 4.3 13:54:54 10° WSW 13:57:23 13° SSW 13:59:52 10° S
DMSP B5D1-3 4.5 13:52:59 10° NNE 13:58:08 79° ESE 14:03:22 10° S
Cosmos 2221 3.6 13:54:58 10° SSW 13:59:07 47° W 14:03:11 10° NNW
Cosmos 2151 3.6 13:55:23 10° NNW 13:59:30 58° W 14:03:42 10° S
Cosmos 1515 4.1 13:57:14 10° SSE 14:00:41 35° E 14:04:06 10° NNE
COSMOS 2428 4.5 13:56:22 10° SW 14:01:32 35° WNW 14:06:39 10° NNW
SJ-11-01 4.2 13:58:42 10° SSE 14:03:27 86° ENE 14:08:08 10° NNW
USA 276 2.7 14:02:59 10° WSW 14:05:35 47° NW 14:07:54 12° NNE
Cosmos 1954 Rocket 4.0 14:00:25 10° SSW 14:05:41 84° WNW 14:10:57 10° NNE
Cosmos 2297 Rocket 3.7 14:00:45 10° NW 14:05:54 35° WSW 14:11:07 10° S
CZ-4C R/B 3.9 14:04:36 10° SW 14:08:39 28° WNW 14:12:13 10° N
SL-16 R/B 3.1 14:04:46 10° S 14:09:37 27° ESE 14:10:47 25° E
ADEOS 4.3 14:07:43 23° SE 14:09:58 32° E 14:14:35 10° NNE
ATLAS 2AS CENTAUR R/B 3.1 14:05:58 10° NW 14:12:17 57° SW 14:18:54 10° SSE
Cosmos 1242 Rocket 2.7 14:09:20 10° NNE 14:12:35 44° E 14:12:59 42° ESE
Cosmos 1602 4.3 14:09:39 10° NNE 14:12:58 34° E 14:12:58 34° E
Cosmos 1331 Rocket 3.9 14:09:26 10° N 14:14:33 66° ENE 14:18:25 18° SSE
ARGOS 4.0 14:10:10 10° S 14:15:26 51° WSW 14:20:37 10° NNW
Cosmos 1709 Rocket 4.2 14:09:59 10° S 14:16:22 78° W 14:22:44 10° N
Cosmos 405 Rocket 2.7 14:13:58 10° S 14:17:56 87° W 14:21:53 10° N
Cosmos 2184 Rocket 4.5 14:14:08 10° SSE 14:19:51 35° ESE 14:25:33 10° NE
Cosmos 2219 3.6 14:18:54 10° NNW 14:24:33 64° WSW 14:30:06 11° SSE
CBERS 1 LM4 rocket 4.3 14:20:18 13° SSE 14:24:44 77° ENE 14:29:46 10° N
Kakehashi 3.9 14:21:11 10° W 14:27:06 65° N 14:30:47 27° ENE
Cosmos 1980 4.4 14:22:32 10° SSW 14:28:06 56° WNW 14:33:38 10° N
Cosmos 1850 Rocket 4.2 14:24:01 10° S 14:29:12 49° ESE 14:34:22 10° NE
Cosmos 1500 2.9 14:25:43 10° N 14:29:25 79° E 14:30:15 51° SSE
Cosmos 2227 Rocket 3.6 14:28:22 10° NW 14:33:34 36° WSW 14:38:49 10° S
BREEZE-M DEB (TANK) 3.7 14:29:40 10° SW 14:34:21 68° SSE 14:36:33 35° ENE
OAO 1 4.4 14:31:16 10° W 14:36:48 89° NNE 14:38:18 50° E
Meteor 1-10 Rocket 4.1 14:36:59 10° S 14:42:51 82° E 14:48:29 10° N
SEDSat Delta rocket 3.2 14:39:45 10° W 14:44:09 54° N 14:44:34 52° NNE
GOES 2 Rocket 4.5 14:45:57 10° NW 14:49:12 25° NNE 14:49:12 25° NNE
Tiangong 0.5 14:48:11 10° SW 14:49:08 16° SW 14:49:08 16° SW
OAO 3 Copernicus 4.2 14:47:10 10° WNW 14:52:13 75° NNE 14:52:29 73° NE
USA 81 3.9 14:49:48 10° N 14:55:05 80° E 14:56:05 60° SSE
USA 281 4.2 14:57:42 29° SSE 14:57:42 29° SSE 15:01:14 10° S
Cosmos 2263 Rocket 2.1 14:50:17 10° NNW 14:55:57 86° WSW 14:57:29 51° SSE
SeaSat 1 2.6 15:00:23 59° NNE 15:00:23 59° NNE 15:04:32 10° NNW
Spot 1 4.4 14:55:56 10° N 15:00:19 68° WNW 15:05:03 10° SSW
NOAA 6 4.2 15:00:05 41° S 15:01:54 72° WSW 15:07:00 10° NNW
NOSS 2-3 (C) 4.3 14:55:18 10° SSW 15:01:58 63° SSE 15:01:58 63° SSE
NOSS 2-3 (D) 4.5 14:59:02 10° SSW 15:05:27 60° SSE 15:05:27 60° SSE
OAO 2 Rocket 3.9 15:11:47 10° W 15:15:34 52° W 15:15:34 52° W
Lacrosse 4 Rocket 3.2 15:21:47 10° NW 15:24:48 31° W 15:24:48 31° W
Nadezhda 1 Rocket 4.1 15:21:13 10° NNW 15:27:16 69° W 15:27:46 65° SW
ATLAS 5 CENTAUR R/B 3.0 15:20:41 10° NW 15:28:15 70° WSW 15:29:34 59° S
ATLAS CENTAUR R/B 4.0 15:26:54 10° NW 15:27:28 14° NW 15:27:28 14° NW
FALCON 9 R/B 4.4 15:36:15 10° WNW 15:44:56 68° N 15:53:41 48° ENE
ATLAS 3B R/B 3.9 15:41:03 10° SSW 15:43:47 27° SSW 15:43:47 27° SSW
SL-16 R/B 3.6 15:48:32 10° SW 15:52:49 34° W 15:52:49 34° W
FALCON 9 R/B 4.0 16:13:25 10° W 16:22:55 43° W 16:22:55 43° W
Lacrosse 4 Rocket 4.2 23:55:13 17° ENE 23:55:13 17° ENE 23:56:28 10° ENE
Cosmos 2263 Rocket 4.1 23:51:36 21° SE 23:52:48 23° ESE 23:57:10 10° ENE
ATLAS CENTAUR R/B 3.9 23:56:40 21° ENE 23:56:40 21° ENE 23:58:29 10° NE
